Flag for Germany Weather past 2 weeks in Soltau, Lower Saxony, Germany

Now
64 °F

Partly sunny.


Feels Like: 64 °F
Forecast: 42 / 59 °F
Wind: 20 mph from Northwest

Location: Fassberg

Current Time: Apr 21, 2015 at 4:51:58 PM

Latest Report: Apr 21, 2015 at 4:20 PM


Visibility: N/A

Pressure: 30.33 "Hg

Humidity: 30%

Dew point: 32 °F

Location of SoltauLocation

Historic Weather in Soltau — Graph

°F

Soltau temperature yesterday

Maximum temperature yesterday: 66 °F (at 2:20 PM)
Minimum temperature yesterday: 28 °F (at 5:20 AM)
Average temperature yesterday: 50 °F

Past Weeks' High & Low Weather Summary

 TemperatureHumidityPressure
High72 °F (Apr 15, 3:20 PM)100% (Apr 8, 11:50 PM)30.57 "Hg (Apr 8, 11:50 PM)
Low25 °F (Apr 7, 4:20 AM)28% (Apr 20, 4:20 PM)29.86 "Hg (Apr 15, 5:20 PM)
Average48 °F67%30.24 "Hg
* Reported Apr 6 3:20 PM — Apr 21 3:20 PM, Soltau, Weather by CustomWeather, © 2015

Note: Actual official high and low records may vary slightly from our data, if they occured in-between our weather recording intervals... More about our weather records

Advertising

Soltau weather history for previous 24 hours

 ConditionsComfort  
Time TempWeatherWind HumidityBarometerVisibility
3:20 PM
Tue, Apr 21
66 °FPartly sunny.21 mph28%30.33 "HgN/A
2:20 PM66 °FPartly sunny.18 mph28%30.33 "HgN/A
1:20 PM64 °FPartly sunny.20 mph32%30.36 "HgN/A
12:20 PM63 °FPartly sunny.17 mph32%30.36 "HgN/A
11:20 AM61 °FPartly sunny.13 mph39%30.36 "HgN/A
10:20 AM59 °FPartly sunny.10 mph42%30.36 "HgN/A
9:20 AM52 °FPartly sunny.5 mph62%30.36 "HgN/A
8:20 AM45 °FPartly sunny.6 mph87%30.36 "HgN/A
7:20 AM39 °FScattered clouds.5 mph93%30.36 "Hg5 mi
6:20 AM34 °FFog.2 mph87%30.36 "HgN/A
5:20 AM32 °FFog.1 mph87%30.36 "HgN/A
4:20 AM34 °FPassing clouds.2 mph81%30.36 "HgN/A
3:20 AM32 °FChilly.1 mph93%30.36 "HgN/A
2:20 AM36 °FPassing clouds.1 mph81%30.36 "HgN/A
1:20 AM37 °FPassing clouds.1 mph81%30.36 "HgN/A
12:20 AM39 °FPassing clouds.2 mph75%30.36 "HgN/A
11:20 PM
Mon, Apr 20
43 °FPassing clouds.2 mph66%30.36 "HgN/A
10:20 PM48 °FPassing clouds.1 mph54%30.36 "HgN/A
9:20 PM55 °FScattered clouds.6 mph44%30.33 "HgN/A
8:20 PM57 °FPartly sunny.7 mph39%30.33 "HgN/A
7:20 PM63 °FPartly sunny.10 mph32%30.30 "HgN/A
6:20 PM64 °FPartly sunny.13 mph30%30.30 "HgN/A
5:20 PM66 °FPartly sunny.12 mph28%30.30 "HgN/A
4:20 PM66 °FPartly sunny.9 mph28%30.30 "HgN/A
Weather by CustomWeather, © 2015

See weather overviewHow to use our weather pages